Location: Newark
(46.7000°N, 60.6000°W)
Time: 09:10:36
(UTC+00:00)

Transit 2A Rocket - Pass Details

Date: 29 October 2020
Orbit: 588 x 915 km, 66.7° (Epoch: 23 November)

Event Time Altitude Azimuth Distance (km) Brightness Sun altitude
Rises 13:21:27 0° 206° (SSW) 3,534 8.8 21.4°
Reaches altitude 10° 13:23:59 10° 205° (SSW) 2,597 8.2 21.7°
Maximum altitude 13:30:04 76° 121° (ESE) 931 6.1 22.3°
Drops below altitude 10° 13:35:57 10° 37° (NE) 2,517 7.6 22.9°
Sets 13:38:23 0° 36° (NE) 3,418 8.2 23.1°
